{"data":{"norad_id":52659,"intl_designator":"2022-053D","name":"STARLINK-3960","alt_names":[],"object_type":"PAYLOAD","status":"ACTIVE","operator":null,"country":"US","launch_date":"2022-05-18","launch_site_code":"AFETR","launch_vehicle":null,"mission":null,"orbit_class":"UNKNOWN","rcs_meters":null,"size_class":null,"mass_kg":null,"dimensions":null,"purposes":["comms"],"wikipedia_slug":null,"has_3d_model":false,"image_url":null,"decayed_at":null,"tle_current":{"epoch":"2026-09-19T06:27:54.476064Z","epoch_age_seconds":172802,"freshness":"STALE","line1":"1 52659U 22053D   26262.26938051  .00000295  00000+0  20307-4 0  9992","line2":"2 52659  53.1607 353.4526 0001113  72.0319 288.0804 15.33550351240600","mean_motion":15.33550351,"eccentricity":0.0001113,"inclination_deg":53.1607,"raan_deg":353.4526,"arg_perigee_deg":72.0319,"mean_anomaly_deg":288.0804,"bstar":2.0307e-5,"rev_number":24060,"period_min":93.899753539948,"perigee_km":464.46807524899,"apogee_km":465.99140868576,"semimajor_km":6843.3667419674,"source":"CELESTRAK","updated_at":"2026-09-20T09:00:40.100629Z"}}}